Regional Weather Roundup
Issued by NWS

Home | Current Version | Previous Version | Text Only | Print | Product List | Glossary On
Versions: 1 2 3 4 5 6 7 8 9 10 11 12 13 14 15 16 17 18 19 20 21 22 23 24 25 26 27 28
000
ASUS46 KSEW 260110
RWRWA

WASHINGTON REGIONAL WEATHER ROUNDUP
NATIONAL WEATHER SERVICE SEATTLE WA
600 PM PDT MON JUL 25 2016

NOTE:"FAIR" INDICATES FEW OR NO CLOUDS BELOW 12,000 FEET WITH NO
SIGNIFICANT WEATHER AND/OR OBSTRUCTIONS TO VISIBILITY.

WAZ505-507>509-260200-
SEATTLE, TACOMA, EVERETT, AND VICINITY

CITY           SKY/WX    TMP DP  RH WIND       PRES   REMARKS
EVERETT        SUNNY     74  58  57 N7        30.06S
BOEING FIELD   MOSUNNY   84  54  35 NW8       30.01F
RENTON         SUNNY     85  61  44 NW8       30.01S
SEATAC AIRPORT MOSUNNY   85  60  42 N12       30.04F
JBLM-MCCHORD   SUNNY     85  60  42 NW7       30.02F
PUYALLUP       FAIR      86  59  39 VRB3G12   30.04F
BREMERTON      SUNNY     82  61  47 N10       30.05F
JBLM-FT LEWIS  SUNNY     85  62  44 VRB2      30.02F
TACOMA NARROWS SUNNY     81  57  43 SE5       30.02F
$$

WAZ001-503-506-510-514-515-260200-
NORTH INTERIOR

CITY           SKY/WX    TMP DP  RH WIND       PRES   REMARKS
BELLINGHAM     MOSUNNY   76  60  57 S9        30.02F
FRIDAY HARBOR  MOSUNNY   67  55  65 E6        30.04F
EASTSOUND      PTSUNNY   73  59  60 S7        30.01F
PORT ANGELES   SUNNY     66  56  70 NW8       30.07F
EDIZ HOOK      FAIR      59  55  86 W24G30    30.06S
PORT TOWNSEND  FAIR      70  59  68 NW9       30.05S
NAS WHIDBEY    MOSUNNY   63  53  70 W9        30.09F
ARLINGTON      SUNNY     79  57  47 NW14      30.04S
BURLINGTON     SUNNY     75  61  60 SW8       30.03F
$$

WAZ020-022-039-040-504-511-512-260200-
SOUTHWEST INTERIOR

CITY           SKY/WX    TMP DP  RH WIND       PRES   REMARKS
SHELTON        SUNNY     82  61  48 SW15G23   30.01S
OLYMPIA        MOSUNNY   83  60  45 NW10      30.02F
CHEHALIS       FAIR      82  63  51 VRB6G18   30.04S
KELSO          SUNNY     78  63  59 W12G21    30.03S
VANCOUVER      SUNNY     86  60  41 NW12G20   29.99S
SCAPPOOSE, OR  SUNNY     87  59  38 N12       29.99S
PORTLAND, OR   MOSUNNY   87  61  41 NW8       29.99F
$$

WAZ021-516-517-260200-
WASHINGTON COAST

CITY           SKY/WX    TMP DP  RH WIND       PRES   REMARKS
FORKS          CLOUDY    60  57  89 W9        30.12F
HOQUIAM        CLOUDY    63  59  87 W15       30.11S FOG
ASTORIA, OR    CLOUDY    65  57  75 NW15      30.12S
$$

WAZ019-023-024-040-518-519-260200-
CASCADE MOUNTAINS AND COLUMBIA GORGE

CITY           SKY/WX    TMP DP  RH WIND       PRES   REMARKS
STAMPEDE PASS  SUNNY     70  53  54 VRB6      30.15F
TROUTDALE, OR  SUNNY     86  62  44 CALM      29.98F
THE DALLES, OR SUNNY     90  59  35 NW21G28   29.87S
$$

WAZ026-027-041>044-520-521-260200-
EAST SLOPES

CITY           SKY/WX    TMP DP  RH WIND       PRES   REMARKS
OMAK           MOSUNNY   93  44  18 S7        29.87F
WENATCHEE      MOSUNNY   95  53  24 SE6       29.87F HX  92
ELLENSBURG     MOSUNNY   86  57  37 NW17      29.93S
YAKIMA         MOSUNNY  100  47  16 SW3       29.87F HX  96
$$

WAZ028-034-035-260200-
COLUMBIA BASIN

CITY           SKY/WX    TMP DP  RH WIND       PRES   REMARKS
EPHRATA        SUNNY     95  42  16 S8        29.88F HX  91
MOSES LAKE     SUNNY     96  43  16 S9        29.89F HX  92
PASCO          SUNNY     99  44  15 N5        29.84F HX  95
HERMISTON, OR  SUNNY     99  46  16 N6        29.85F HX  95
$$

WAZ036>038-260200-
NORTHEAST WASHINGTON

CITY           SKY/WX    TMP DP  RH WIND       PRES   REMARKS
SPOKANE GEIGER MOSUNNY   91  43  18 VRB6      29.97F
SPOKANE FELTS  SUNNY     92  46  20 VRB3      29.95F
FAIRCHILD AFB  SUNNY     91  38  16 N6        29.98S
COEURDALENE,ID MOSUNNY   90  52  27 S5        29.94S
DEER PARK      SUNNY     90  41  18 SW3       29.97F
$$

WAZ029>033-260200-
SOUTHEAST WASHINGTON

CITY           SKY/WX    TMP DP  RH WIND       PRES   REMARKS
PULLMAN        MOSUNNY   89  43  20 N5        30.00F
LEWISTON, ID   SUNNY     98  45  16 NE5       29.89F HX  94
WALLA WALLA    SUNNY     98  41  14 W10       29.87F HX  93
PENDLETON, OR  SUNNY     97  40  14 N10       29.89F HX  92
$$




USA.gov is the U.S. government's official web portal to all federal, state and local government web resources and services.